| time (UTC) | temp F | wind direction | speed MPH | gust MPH | rain 1hr in | rain 24hr in | rain mn in | humidity % | barometer mb |
| 20260905040017 | 44 | 256 | 0.0 | 0.0 | 0.00 | 0.01 | 0.01 | 80 | 1010.7 |
| 20260905034516 | 44 | 256 | 0.0 | 0.0 | 0.00 | 0.01 | 0.01 | 79 | 1010.5 |
| 20260905033013 | 45 | 245 | 0.0 | 1.0 | 0.00 | 0.01 | 0.01 | 79 | 1010.3 |
| 20260905031513 | 45 | 269 | 0.0 | 1.0 | 0.00 | 0.01 | 0.01 | 79 | 1010.1 |
| 20260905030013 | 45 | 271 | 0.0 | 1.0 | 0.00 | 0.01 | 0.01 | 80 | 1010.0 |
| 20260905024511 | 46 | 248 | 0.0 | 1.0 | 0.00 | 0.01 | 0.01 | 78 | 1010.0 |
| 20260905023013 | 46 | 273 | 0.0 | 1.0 | 0.00 | 0.01 | 0.01 | 76 | 1010.0 |
| 20260905021516 | 47 | 255 | 0.0 | 1.0 | 0.00 | 0.01 | 0.01 | 75 | 1010.0 |
| 20260905020009 | 47 | 274 | 0.0 | 2.0 | 0.00 | 0.01 | 0.01 | 75 | 1009.8 |
| 20260905014508 | 48 | 266 | 0.0 | 2.0 | 0.00 | 0.01 | 0.01 | 72 | 1009.7 |
| 20260905013007 | 48 | 278 | 0.0 | 5.0 | 0.00 | 0.01 | 0.01 | 72 | 1009.5 |
| 20260905011508 | 49 | 250 | 0.0 | 3.0 | 0.00 | 0.01 | 0.01 | 71 | 1009.5 |
| 20260905010006 | 50 | 274 | 0.0 | 4.0 | 0.00 | 0.01 | 0.01 | 71 | 1009.6 |
| 20260905004506 | 51 | 267 | 0.0 | 3.0 | 0.00 | 0.01 | 0.01 | 69 | 1009.7 |
| 20260905003006 | 50 | 288 | 0.0 | 2.0 | 0.00 | 0.01 | 0.01 | 72 | 1009.6 |
| 20260905001505 | 51 | 278 | 0.0 | 4.0 | 0.00 | 0.01 | 0.01 | 71 | 1009.7 |
| 20260905000004 | 51 | 340 | 1.0 | 4.0 | 0.00 | 0.01 | 0.01 | 68 | 1009.7 |
| 20260904234504 | 51 | 274 | 0.0 | 3.0 | 0.00 | 0.01 | 0.01 | 69 | 1009.7 |
| 20260904233003 | 53 | 259 | 0.0 | 5.0 | 0.00 | 0.01 | 0.01 | 66 | 1009.5 |
| 20260904231502 | 53 | 249 | 0.0 | 5.0 | 0.00 | 0.01 | 0.01 | 67 | 1009.4 |
| 20260904224556 | 52 | 248 | 0.0 | 4.0 | 0.00 | 0.01 | 0.01 | 70 | 1009.6 |
| 20260904223053 | 52 | 263 | 0.0 | 3.0 | 0.00 | 0.01 | 0.01 | 69 | 1009.8 |
| 20260904221554 | 51 | 262 | 0.0 | 5.0 | 0.00 | 0.01 | 0.01 | 72 | 1009.8 |
| 20260904220049 | 51 | 248 | 0.0 | 5.0 | 0.00 | 0.01 | 0.01 | 71 | 1009.8 |
| 20260904214557 | 51 | 252 | 0.0 | 4.0 | 0.00 | 0.01 | 0.01 | 71 | 1009.8 |
| 20260904213046 | 51 | 260 | 0.0 | 4.0 | 0.00 | 0.01 | 0.01 | 74 | 1009.6 |
| 20260904211545 | 52 | 264 | 0.0 | 3.0 | 0.00 | 0.01 | 0.01 | 72 | 1009.6 |
| 20260904210039 | 51 | 263 | 0.0 | 4.0 | 0.00 | 0.01 | 0.01 | 75 | 1009.5 |
| 20260904204535 | 49 | 266 | 0.0 | 3.0 | 0.00 | 0.01 | 0.01 | 78 | 1009.6 |
| 20260904203034 | 48 | 269 | 0.0 | 2.0 | 0.00 | 0.01 | 0.01 | 79 | 1009.6 |
| 20260904201531 | 48 | 256 | 0.0 | 3.0 | 0.00 | 0.01 | 0.01 | 80 | 1009.5 |
| 20260904200029 | 47 | 264 | 0.0 | 5.0 | 0.00 | 0.01 | 0.01 | 81 | 1009.3 |
| 20260904194531 | 47 | 259 | 0.0 | 5.0 | 0.00 | 0.01 | 0.01 | 80 | 1009.5 |
| 20260904193027 | 47 | 248 | 0.0 | 4.0 | 0.00 | 0.01 | 0.01 | 80 | 1009.3 |
| 20260904191526 | 47 | 269 | 1.0 | 5.0 | 0.00 | 0.01 | 0.01 | 82 | 1009.3 |
| 20260904190023 | 46 | 266 | 0.0 | 3.0 | 0.00 | 0.01 | 0.01 | 84 | 1009.2 |
| 20260904184525 | 46 | 283 | 0.0 | 4.0 | 0.00 | 0.01 | 0.01 | 85 | 1009.1 |
| 20260904183020 | 45 | 269 | 1.0 | 4.0 | 0.00 | 0.01 | 0.01 | 85 | 1009.0 |
| 20260904181523 | 45 | 252 | 0.0 | 3.0 | 0.00 | 0.01 | 0.01 | 87 | 1009.0 |
| 20260904180036 | 45 | 262 | 0.0 | 2.0 | 0.00 | 0.01 | 0.01 | 87 | 1008.7 |
| 20260904174516 | 45 | 273 | 0.0 | 5.0 | 0.00 | 0.01 | 0.01 | 86 | 1008.7 |
| 20260904173022 | 45 | 277 | 0.0 | 4.0 | 0.00 | 0.01 | 0.01 | 85 | 1008.6 |
| 20260904171521 | 45 | 262 | 0.0 | 5.0 | 0.00 | 0.01 | 0.01 | 85 | 1008.4 |
| 20260904170011 | 45 | 277 | 0.0 | 3.0 | 0.00 | 0.01 | 0.01 | 86 | 1008.3 |
| 20260904164510 | 45 | 269 | 0.0 | 3.0 | 0.00 | 0.01 | 0.01 | 86 | 1007.9 |
| 20260904163007 | 45 | 280 | 0.0 | 4.0 | 0.00 | 0.01 | 0.01 | 87 | 1007.8 |
| 20260904161511 | 45 | 262 | 0.0 | 3.0 | 0.00 | 0.01 | 0.01 | 88 | 1007.6 |
| 20260904160011 | 44 | 277 | 0.0 | 3.0 | 0.00 | 0.01 | 0.01 | 89 | 1007.7 |
| 20260904154511 | 44 | 278 | 1.0 | 3.0 | 0.00 | 0.01 | 0.01 | 91 | 1007.5 |
| 20260904153003 | 44 | 273 | 1.0 | 6.0 | 0.00 | 0.01 | 0.01 | 91 | 1007.3 |
| 20260904151502 | 44 | 288 | 0.0 | 2.0 | 0.00 | 0.01 | 0.01 | 92 | 1007.3 |
| 20260904150106 | 43 | 276 | 0.0 | 3.0 | 0.00 | 0.01 | 0.01 | 92 | 1007.1 |
| 20260904144600 | 43 | 242 | 0.0 | 4.0 | 0.01 | 0.01 | 0.01 | 92 | 1007.0 |
| 20260904143100 | 43 | 283 | 0.0 | 3.0 | 0.01 | 0.01 | 0.01 | 92 | 1007.0 |
| 20260904141558 | 43 | 274 | 0.0 | 1.0 | 0.01 | 0.01 | 0.01 | 92 | 1006.9 |
| 20260904140057 | 43 | 274 | 0.0 | 4.0 | 0.01 | 0.01 | 0.01 | 92 | 1006.8 |
| 20260904134559 | 43 | 263 | 0.0 | 3.0 | 0.00 | 0.00 | 0.00 | 91 | 1006.7 |
| 20260904133101 | 43 | 274 | 0.0 | 4.0 | 0.00 | 0.00 | 0.00 | 90 | 1006.5 |
| 20260904131552 | 43 | 281 | 0.0 | 4.0 | 0.00 | 0.00 | 0.00 | 88 | 1006.5 |
| 20260904130050 | 44 | 249 | 0.0 | 2.0 | 0.00 | 0.00 | 0.00 | 88 | 1006.3 |
| 20260904124551 | 44 | 260 | 0.0 | 3.0 | 0.00 | 0.00 | 0.00 | 87 | 1006.3 |
| 20260904123048 | 44 | 243 | 0.0 | 2.0 | 0.00 | 0.00 | 0.00 | 87 | 1006.4 |
| 20260904121547 | 44 | 270 | 0.0 | 4.0 | 0.00 | 0.00 | 0.00 | 86 | 1006.3 |
| 20260904120055 | 44 | 252 | 0.0 | 3.0 | 0.00 | 0.00 | 0.00 | 85 | 1006.3 |
| 20260904114551 | 44 | 233 | 0.0 | 4.0 | 0.00 | 0.00 | 0.00 | 85 | 1006.3 |
| 20260904113044 | 44 | 264 | 0.0 | 3.0 | 0.00 | 0.00 | 0.00 | 84 | 1006.1 |
| 20260904111543 | 44 | 190 | 0.0 | 5.0 | 0.00 | 0.00 | 0.00 | 85 | 1006.4 |
| 20260904110040 | 44 | 277 | 0.0 | 5.0 | 0.00 | 0.00 | 0.00 | 84 | 1006.3 |
| 20260904104602 | 45 | 249 | 0.0 | 5.0 | 0.00 | 0.00 | 0.00 | 84 | 1006.3 |
| 20260904103039 | 45 | 249 | 0.0 | 4.0 | 0.00 | 0.00 | 0.00 | 84 | 1006.2 |
| 20260904101541 | 45 | 292 | 0.0 | 7.0 | 0.00 | 0.00 | 0.00 | 84 | 1006.1 |
| 20260904100040 | 45 | 276 | 0.0 | 4.0 | 0.00 | 0.00 | 0.00 | 84 | 1006.3 |
| 20260904094549 | 45 | 267 | 0.0 | 3.0 | 0.00 | 0.00 | 0.00 | 84 | 1006.1 |
| 20260904093033 | 45 | 225 | 0.0 | 4.0 | 0.00 | 0.00 | 0.00 | 85 | 1006.2 |
| 20260904091532 | 45 | 274 | 0.0 | 5.0 | 0.00 | 0.00 | 0.00 | 85 | 1006.3 |
| 20260904090030 | 45 | 267 | 0.0 | 5.0 | 0.00 | 0.00 | 0.00 | 86 | 1006.5 |
| 20260904084529 | 45 | 278 | 0.0 | 3.0 | 0.00 | 0.00 | 0.00 | 85 | 1006.6 |
| 20260904083028 | 45 | 183 | 0.0 | 4.0 | 0.00 | 0.00 | 0.00 | 84 | 1006.6 |
| 20260904081526 | 45 | 276 | 0.0 | 3.0 | 0.00 | 0.00 | 0.00 | 83 | 1006.8 |
| 20260904080024 | 45 | 207 | 0.0 | 5.0 | 0.00 | 0.00 | 0.00 | 82 | 1006.9 |
| 20260904074523 | 45 | 277 | 0.0 | 7.0 | 0.00 | 0.00 | 0.00 | 82 | 1006.9 |
| 20260904073027 | 45 | 197 | 0.0 | 4.0 | 0.00 | 0.00 | 0.00 | 81 | 1006.9 |
| 20260904071520 | 45 | 274 | 0.0 | 4.0 | 0.00 | 0.00 | 0.00 | 81 | 1006.9 |
| 20260904070035 | 45 | 270 | 0.0 | 5.0 | 0.00 | 0.00 | 0.00 | 82 | 1006.7 |
| 20260904064517 | 45 | 280 | 0.0 | 4.0 | 0.00 | 0.00 | 0.00 | 83 | 1006.5 |
| 20260904063017 | 45 | 301 | 0.0 | 4.0 | 0.00 | 0.00 | 0.00 | 83 | 1006.4 |
| 20260904061521 | 45 | 268 | 0.0 | 2.0 | 0.00 | 0.00 | 0.00 | 81 | 1006.4 |
| 20260904060015 | 45 | 236 | 0.0 | 4.0 | 0.00 | 0.00 | 0.00 | 80 | 1006.6 |
| 20260904054517 | 45 | 280 | 0.0 | 5.0 | 0.00 | 0.00 | 0.00 | 81 | 1006.7 |
| 20260904053012 | 45 | 273 | 0.0 | 3.0 | 0.00 | 0.00 | 0.00 | 83 | 1006.7 |
| 20260904051511 | 45 | 275 | 0.0 | 5.0 | 0.00 | 0.00 | 0.00 | 83 | 1007.0 |
| 20260904050024 | 44 | 277 | 0.0 | 3.0 | 0.00 | 0.00 | 0.00 | 84 | 1007.2 |
| 20260904044517 | 44 | 269 | 0.0 | 3.0 | 0.00 | 0.00 | 0.00 | 83 | 1007.3 |
| 20260904043008 | 45 | 271 | 0.0 | 4.0 | 0.00 | 0.00 | 0.00 | 82 | 1007.3 |
| 20260904041507 | 45 | 280 | 0.0 | 7.0 | 0.00 | 0.00 | 0.00 | 79 | 1007.6 |